CST,Max TemperatureF,Mean TemperatureF,Min TemperatureF,Max Dew PointF,MeanDew PointF,Min DewpointF,Max Humidity, Mean Humidity, Min Humidity, Max Sea Level PressureIn, Mean Sea Level PressureIn, Min Sea Level PressureIn, Max VisibilityMiles, Mean VisibilityMiles, Min VisibilityMiles, Max Wind SpeedMPH, Mean Wind SpeedMPH, Max Gust SpeedMPH,PrecipitationIn, CloudCover, Events, WindDirDegrees
2013-11-1,78,66,54,72,62,49,93,68,42,29.93,29.85,29.79,10,8,5,16,6,23,T,5,Rain,291
2013-11-2,76,63,50,51,46,41,86,61,35,30.14,30.01,29.91,10,10,10,18,7,24,0.00,1,,321
2013-11-3,69,57,45,45,41,39,83,59,35,30.24,30.18,30.14,10,10,10,15,7,20,0.00,0,,28
2013-11-4,73,60,47,53,47,40,80,62,44,30.28,30.23,30.19,10,10,7,18,8,24,0.00,4,,70
2013-11-5,77,67,57,58,52,46,75,63,50,30.29,30.22,30.17,10,10,7,16,9,23,0.00,5,,74
2013-11-6,77,67,57,65,59,50,87,76,64,30.17,30.13,30.08,10,9,7,15,8,20,0.00,6,,108
2013-11-7,70,60,50,66,52,33,93,72,51,30.27,30.16,30.03,10,8,2,24,14,30,0.28,6,Rain,344
2013-11-8,66,54,42,38,33,29,76,52,27,30.33,30.25,30.19,10,10,10,22,11,29,0.00,1,,20
2013-11-9,74,59,44,55,47,37,76,63,49,30.27,30.21,30.18,10,10,10,10,5,13,0.00,2,,48
2013-11-10,75,64,52,53,50,45,86,65,44,30.28,30.23,30.19,10,10,10,14,6,17,0.00,3,,17
2013-11-11,77,63,49,51,46,43,89,61,33,30.25,30.20,30.15,10,10,10,9,3,13,0.00,3,,61
2013-11-12,73,57,40,48,41,21,93,67,41,30.44,30.28,30.18,10,10,10,28,13,37,0.00,4,,355
2013-11-13,54,43,32,26,20,16,70,46,22,30.52,30.46,30.42,10,10,10,24,13,31,0.00,3,,25
2013-11-14,65,50,34,45,36,23,69,54,39,30.43,30.31,30.17,10,10,8,14,7,17,0.00,4,,70
2013-11-15,69,63,56,65,57,44,100,81,62,30.15,30.08,30.02,10,7,1,16,8,20,0.71,8,Rain,69
2013-11-16,68,65,61,65,63,61,100,97,93,30.11,30.05,30.01,10,6,1,17,9,32,T,8,,107
2013-11-17,78,71,64,72,68,64,100,94,67,30.01,29.97,29.93,10,6,0,18,9,24,0.07,8,Fog-Rain,171
2013-11-18,73,65,56,72,59,36,100,70,40,30.09,30.01,29.96,10,5,0,23,7,31,0.20,6,Fog-Rain,306
2013-11-19,64,54,44,37,35,32,66,50,34,30.15,30.09,30.04,10,10,7,17,9,23,0.00,3,,7
2013-11-20,72,57,42,54,46,33,93,69,44,30.16,30.11,30.06,10,10,9,9,6,14,0.00,1,,66
2013-11-21,71,63,54,61,57,51,93,82,70,30.25,30.20,30.17,10,8,3,12,7,15,0.00,7,,83
2013-11-22,77,69,60,70,64,59,100,85,69,30.23,30.19,30.15,10,8,1,12,5,18,0.28,7,Rain,111
2013-11-23,66,57,48,65,54,37,100,86,71,30.30,30.22,30.17,10,8,4,23,13,31,T,8,,5
2013-11-24,53,46,39,36,25,19,66,47,28,30.39,30.33,30.30,10,10,10,24,13,30,0.00,2,,15
2013-11-25,58,48,38,57,41,24,86,70,54,30.31,30.12,29.90,10,8,4,18,11,23,0.15,7,Rain,82
2013-11-26,66,54,42,65,48,41,100,92,83,29.94,29.82,29.73,10,6,2,24,12,30,1.70,8,Rain,338
2013-11-27,48,39,29,41,30,23,96,67,38,30.40,30.15,29.94,10,10,7,25,12,35,0.05,4,Rain,330
2013-11-28,49,37,25,31,24,18,92,61,29,30.49,30.44,30.37,10,10,10,12,4,14,0.00,3,,355
2013-11-29,60,44,27,32,25,19,92,56,20,30.55,30.47,30.43,10,10,9,13,4,16,0.00,0,,19
2013-11-30,67,49,31,43,36,27,96,67,37,30.46,30.36,30.27,10,10,10,7,2,10,0.00,0,,67